Regional Weather Roundup
Issued by NWS

Home | Current Version | Previous Version | Text Only | Print | Product List | Glossary On
Versions: 1 2 3 4 5 6 7 8 9 10 11 12 13 14 15 16 17 18 19 20 21 22 23 24 25 26 27 28 29 30 31 32 33 34 35 36 37 38 39 40 41 42 43 44 45 46 47 48 49 50
000
ASUS45 KBOI 260710
RWRID
WEATHER ROUNDUP FOR IDAHO
NATIONAL WEATHER SERVICE BOISE ID
100 AM MDT SAT JUL 26 2014

NOTE: "FAIR" INDICATES FEW OR NO CLOUDS BELOW 12000 FEET
WITH NO SIGNIFICANT WEATHER AND/OR OBSTRUCTIONS TO VISIBILITY

IDZ012-014-260800-
SOUTHWEST IDAHO


CITY           SKY/WX    TMP DP  RH WIND       PRES   REMARKS
BOISE          CLEAR     66  31  27 CALM      30.02R
CALDWELL       CLEAR     64  39  39 W5        30.03S
MOUNTAIN HOME  CLEAR     66  31  27 VRB1      30.03R
$$

IDZ016-017-260800-
SOUTHCENTRAL IDAHO


CITY           SKY/WX    TMP DP  RH WIND       PRES   REMARKS
BURLEY         CLEAR     58  36  43 SW7       30.09R
JEROME         CLEAR     62  35  36 S7        30.09R
TWIN FALLS     CLEAR     67  27  22 S14       30.10R
$$

IDZ019>023-260800-
SOUTHEAST IDAHO


CITY           SKY/WX    TMP DP  RH WIND       PRES   REMARKS
IDAHO FALLS    CLEAR     60  40  47 SW15      30.10R
POCATELLO      CLEAR     68  30  24 SW14      30.10R
REXBURG        CLEAR     63  35  35 S12       30.07R
$$

IDZ006-010-011-018-031-032-260800-
CENTRAL IDAHO MOUNTAINS


CITY           SKY/WX    TMP DP  RH WIND       PRES   REMARKS
MCCALL         CLEAR     55  36  48 CALM      30.16R
HAILEY         CLEAR     59  32  36 NW9       30.14R
STANLEY          N/A     38  21  50 SE3       30.26R
SALMON         CLEAR     63  34  34 CALM      30.12R
CHALLIS        CLEAR     61  23  23 NW9       30.14R
$$

IDZ002-004-006-007-026-260800-
NORTHERN IDAHO


CITY           SKY/WX    TMP DP  RH WIND       PRES   REMARKS
LEWISTON       CLEAR     69  42  37 CALM      30.04R
LOWELL           N/A     58  48  69 N5        30.11R
COEUR D`ALENE  CLEAR     57  48  72 E5        30.08R
MULLAN PASS    CLEAR     49  38  65 NW5       30.22R
$$



USA.gov is the U.S. government's official web portal to all federal, state and local government web resources and services.